EHI
0 0 0 0 0 0 0 0 0 0 0 0 0 0 0 0 0 0 0 0 0 0 0 0 0 0 0 0 0 0 0 0 0 0 0 0 0 0 0 0 0 0 0
0 0 0 0 0 0 0 0 0 0 0 0 0 0 0 0 0 0 0 0 0 0 0 0 0 0 0 0 0 0 0 0 0 0 0 0 0 0 0 0 0 0 0
0 0 0 0 0 0 0 0 0 0 0 0 0 0 0 0 0 0 0 0 0 0 0 0 0 0 0 0 0 0 0 0 0 0 0 0 0 0 0 0 0 0 0
0 0 0 0 0 0 0 0 0 0 0 0 0 0 0 0 0 0 0 0 0 0 0 0 0 0 0 0 0 0 0 0 0 0 0 0 0 0 0 0 0 0 0
0 0 0 0 0 0 0 0 0 0 0 0 0 0 0 0 0 0 0 0 0 0 0 0 0 0 0 0 0 0 0 0 0 0 0 0 0 0 0 0 0 0 0
0 0 0 0 0 0 1 0 0 0 0 0 0 0 0 0 0 0 0 0 0 0 0 0 0 0 0 0 0 0 0 0 0 0 0 0 0 0 0 0 0 0 0
0 0 0 0 0 0 0 0 0 0 0 0 0 0 0 0 0 0 0 0 0 0 0 0 0 0 0 0 0 0 0 0 0 0 0 0 0 0 0 0 0 0 0
0 0 0 0 0 0 0 0 0 0 0 0 0 0 0 0 0 0 0 0 0 0 0 0 0 0 0 0 0 0 0 0 0 0 0 0 0 0 0 0 0 0 0
0 0 0 0 0 0 0 0 0 0 0 0 0 0 0 0 0 0 0 0 0 0 0 0 0 0 0 0 0 0 0 0 0 0 0 0 0 0 0 0 0 0 0
0 0 0 0 0 0 0 0 0 0 0 0 0 0 0 0 0 0 0 0 0 0 0 0 0 0 0 0 0 0 0 0 0 0 0 0 0 0 0 0 0 0 0
0 0 0 0 0 0 0 0 0 0 0 0 0 0 0 0 0 0 0 0 0 0 0 0 0 0 0 0 0 0 0 0 0 0 0 0 0 0 0 0 0 0 0
0 0 0 0 0 0 0 0 0 0 0 0 0 0 0 0 0 0 0 0 0 0 0 0 0 0 0 0 0 0 0 0 0 0 0 0 0 0 0 0 0 0 0
0 0 0 0 0 0 0 0 0 0 0 0 0 0 0 0 0 0 0 0 0 0 0 0 0 0 0 0 0 0 0 0 0 0 0 0 0 0 0 0 0 0 0
0 0 0 0 0 0 0 0 0 0 0 0 0 0 0 0 0 0 0 0 0 0 0 0 0 0 0 0 0 0 0 0 0 0 0 0 0 0 0 0 0 0 0
0 0 0 0 0 0 0 0 0 0 0 0 0 0 0 0 0 0 0 0 0 0 0 0 0 0 0 0 0 0 0 0 0 0 0 0 0 0 0 0 0 0 0
0 0 0 0 0 0 0 0 0 0 0 0 0 0 0 0 0 0 0 0 0 0 0 0 0 0 0 0 0 0 0 0 0 0 0 0 0 0 0 0 0 0 0
0 0 0 0 0 0 0 0 0 0 0 0 0 0 0 0 0 0 0 0 0 0 0 0 0 0 0 0 0 0 0 0 0 0 0 0 0 0 0 0 0 0 0
0 0 0 0 0 0 0 0 0 0 0 0 0 0 0 0 0 0 0 0 0 0 0 0 0 0 0 0 0 0 0 0 0 0 0 0 0 0 0 0 0 0 0
0 0 0 0 0 0 0 0 0 0 0 0 0 0 0 0 0 0 0 0 0 0 0 0 0 0 0 0 0 0 0 0 0 0 0 0 0 0 0 0 0 0 0
0 0 0 0 0 0 0 0 0 0 0 0 0 0 0 0 0 0 0 0 0 0 0 0 0 0 0 0 0 0 0 0 0 0 0 0 0 0 0 0 0 0 0
0 0 0 0 0 0 0 0 0 0 0 0 0 0 0 0 0 0 0 0 0 0 0 0 0 0 0 0 0 0 0 0 0 0 0 0 0 0 0 0 0 0 0
0 0 0 0 0 0 0 0 0 0 0 0 0 0 0 0 0 0 0 0 0 0 0 0 0 0 0 0 0 0 0 0 0 0 0 0 0 0 0 0 0 0 0
0 0 0 0 0 0 0 0 0 0 0 0 0 0 0 0 0 0 0 0 0 0 0 0 0 0 0 0 0 0 0 0 0 0 0 0 0 0 0 0 0 0 0
0 0 0 0 0 0 0 0 0 0 0 0 0 0 0 0 0 0 0 0 0 0 0 0 0 0 0 0 0 0 0 0 0 0 0 0 0 0 0 0 0 0 0
0 0 0 0 0 0 0 0 0 0 0 0 0 0 0 0 0 0 0 0 0 0 0 0 0 0 0 0 0 0 0 0 0 0 0 0 0 0 0 0 0 0 0
0 0 0 0 0 0 0 0 0 0 0 0 0 0 0 0 0 0 0 0 0 0 0 0 0 0 0 0 0 0 0 0 0 0 0 0 0 0 0 0 0 0 0
Wind_Speed
7 7 8 8 7 7 7 7 7 5 4 4 4 4 5 4 5 5 7 7 7 7 6 5 6 7 6 7 8 7 8 6 5 5 4 4 6 7 7 7 8 9 9
7 8 9 8 8 8 8 8 8 6 6 5 5 5 5 5 5 5 6 7 7 7 6 7 7 7 6 8 8 8 6 5 6 5 4 4 5 6 7 7 7 8 8
8 9 9 8 9 9 8 7 7 7 7 6 5 5 4 4 5 6 5 7 8 8 8 9 8 8 8 7 8 9 10 7 7 7 6 5 5 4 6 8 8 8 7
9 9 10 9 9 9 9 8 8 7 7 7 6 7 6 7 7 6 6 7 8 9 9 9 9 9 8 9 9 9 8 9 8 7 7 6 3 4 4 6 7 8 9
9 10 9 9 9 9 8 8 8 8 7 7 7 8 8 7 6 6 8 8 7 9 9 9 9 9 8 9 9 9 10 9 9 8 7 7 5 5 4 5 7 7 7
8 9 9 9 9 8 8 8 8 8 7 7 8 8 9 9 8 8 7 7 6 7 10 10 10 10 9 9 9 9 11 10 10 9 8 7 6 6 5 5 7 7 6
9 10 10 9 9 9 9 8 9 9 8 7 8 8 8 9 8 8 7 7 6 6 8 9 10 9 9 9 9 10 10 11 11 10 8 8 8 6 6 5 5 5 4
9 10 10 9 9 9 9 9 9 9 8 8 8 8 8 6 6 7 6 6 6 7 8 9 10 10 10 10 10 9 10 10 11 11 10 7 7 6 6 6 5 5 4
9 10 10 9 9 9 9 9 9 9 8 8 8 7 7 6 6 6 6 6 6 7 8 9 9 10 10 10 11 9 11 10 10 10 10 9 7 6 7 6 6 5 5
10 11 10 10 9 8 8 9 9 9 9 8 6 4 5 6 6 6 6 7 7 7 7 8 9 9 10 10 10 10 10 10 10 8 10 9 7 7 7 7 6 6 5
11 11 10 10 9 8 8 8 7 8 7 6 5 4 4 5 5 5 6 7 7 7 6 7 7 8 8 9 9 10 10 10 10 9 9 10 9 7 7 6 6 6 5
11 11 11 10 10 9 8 8 7 7 6 5 4 4 4 4 4 5 5 6 6 6 5 6 7 7 8 8 9 9 10 10 10 10 10 10 8 9 7 6 7 7 6
11 11 11 10 9 9 8 8 7 7 6 5 4 4 4 4 4 4 5 5 5 5 5 5 6 7 7 7 7 7 8 10 10 10 10 10 10 10 7 8 7 6 6
10 11 10 10 9 9 8 8 7 7 6 5 4 4 5 4 4 4 4 4 4 4 4 5 6 6 6 7 7 7 7 8 9 9 9 9 9 9 9 8 8 7 7
10 11 11 10 10 9 8 7 7 7 6 5 5 5 5 4 3 3 3 3 3 3 4 5 5 5 5 5 6 6 6 6 7 8 8 9 9 10 8 7 7 8 6
10 10 10 10 9 9 8 7 7 7 6 5 5 5 5 4 2 2 2 3 3 4 4 5 5 5 4 5 6 6 6 7 7 7 7 8 9 10 10 9 9 9 9
10 10 10 9 9 8 7 7 7 7 5 4 5 5 5 4 3 2 2 3 3 3 4 4 4 5 5 5 6 6 6 6 6 7 7 7 7 9 8 8 8 8 8
9 9 9 9 8 7 7 7 7 6 5 4 5 5 5 5 5 3 3 4 3 3 4 4 4 4 4 5 5 5 5 5 6 6 7 7 8 8 8 7 7 6 6
9 9 9 8 8 7 7 7 6 6 6 5 5 5 5 5 5 5 4 4 4 4 4 4 4 4 5 5 5 5 4 4 5 5 6 7 8 9 10 8 7 6 4
8 8 8 8 7 7 7 6 6 6 6 6 5 5 5 5 5 5 5 5 4 4 4 4 4 4 4 4 4 5 3 4 3 3 5 7 8 9 11 9 8 7 5
8 8 7 7 7 7 6 6 6 6 7 6 6 5 5 5 5 5 5 5 5 5 5 5 4 4 4 5 5 5 2 2 3 3 3 4 8 8 9 9 8 8 6
8 8 7 7 7 6 6 7 7 7 7 6 6 6 5 5 4 5 5 5 5 5 5 4 4 3 3 3 4 5 5 3 3 3 3 4 8 8 8 6 7 9 7
8 7 7 7 7 6 6 7 7 7 6 6 6 6 5 5 5 5 5 5 4 3 3 3 3 3 3 2 3 4 4 4 2 2 3 4 7 6 5 6 8 8 5
7 6 7 7 7 6 6 6 6 6 6 6 6 5 5 5 5 4 4 4 4 4 3 3 3 3 3 3 2 2 2 2 1 1 2 5 5 4 4 5 5 3 4
7 6 7 7 7 7 6 6 6 6 6 6 6 6 5 5 5 4 4 5 5 4 4 4 4 4 4 4 5 4 3 3 1 1 1 2 3 3 3 3 3 3 3
7 6 7 7 7 6 6 6 5 6 6 5 6 5 4 4 4 4 5 5 6 7 7 7 6 5 5 5 5 6 5 3 2 1 3 3 3 3 3 3 3 2 3
Wind_Direction
317 318 312 307 302 296 298 294 288 281 276 270 265 259 253 239 230 230 227 217 213 211 212 211 211 213 213 215 217 215 213 213 203 205 211 218 218 214 211 209 209 208 206
320 322 318 317 310 308 301 293 284 278 274 271 265 256 257 248 241 238 232 221 215 213 214 211 210 214 217 218 218 214 213 214 205 206 199 206 209 212 214 209 210 209 202
317 319 317 315 311 308 304 297 287 281 276 274 267 262 257 247 239 236 234 226 220 219 218 219 215 215 217 218 217 216 216 212 211 212 210 206 208 189 198 208 207 207 204
314 315 313 312 308 306 304 294 287 282 278 271 262 257 251 251 245 239 237 232 224 222 222 223 221 218 219 219 219 219 222 214 214 214 225 231 216 200 190 198 205 207 209
316 314 312 308 306 308 307 299 296 288 281 269 261 256 250 254 250 244 239 234 228 224 223 224 223 221 221 222 222 222 223 218 219 217 214 217 216 221 212 204 198 203 210
312 314 316 311 312 315 313 310 302 292 285 271 262 257 252 253 249 250 246 236 231 231 227 224 225 222 220 220 222 224 224 223 222 221 218 214 208 208 211 214 206 206 203
320 319 321 317 316 316 314 309 304 297 287 276 268 261 258 252 244 247 246 241 236 234 234 229 224 222 221 220 221 223 224 224 225 225 223 222 222 217 214 216 213 215 208
319 318 318 315 311 309 308 308 304 300 293 280 272 263 260 252 245 244 243 242 240 237 235 235 231 225 223 221 221 223 223 223 225 226 225 224 223 219 215 212 205 208 216
323 319 314 314 313 310 305 302 303 302 297 286 273 260 259 253 247 246 246 245 247 244 235 233 231 227 224 223 223 225 223 222 223 222 222 223 222 219 220 216 211 209 215
325 324 321 318 317 314 308 306 303 298 294 286 282 263 254 251 246 245 251 253 251 248 242 236 234 232 227 225 226 227 224 225 223 219 219 221 219 218 217 212 214 219 222
324 325 326 324 324 320 316 312 307 302 298 291 290 279 265 260 250 245 249 252 251 248 243 241 235 232 232 228 228 227 222 223 221 217 218 220 220 218 215 212 209 211 214
322 323 324 325 325 324 324 321 316 314 313 304 297 291 284 269 256 255 258 256 254 245 241 241 238 236 236 233 230 229 223 222 220 218 220 222 219 218 215 210 210 208 210
321 322 325 326 327 326 324 323 323 325 327 321 310 302 295 280 267 266 270 269 257 248 242 243 241 242 243 238 234 234 233 226 223 219 221 222 216 217 213 209 208 205 202
323 325 327 327 327 326 327 323 325 329 330 328 325 310 302 292 285 281 281 278 271 257 249 250 247 246 243 241 237 234 236 235 231 223 221 223 219 217 212 209 207 201 193
324 327 327 326 326 327 328 327 327 329 328 325 324 317 311 301 292 289 289 288 284 279 265 261 258 251 245 242 244 236 235 237 239 230 224 222 217 217 213 208 202 197 192
321 323 323 322 323 325 326 326 325 326 325 325 321 323 321 313 308 306 307 295 287 287 283 270 259 255 256 253 255 243 240 238 238 232 229 222 213 208 209 208 203 200 195
314 315 316 317 318 320 323 322 322 322 325 330 329 328 326 327 315 309 302 300 299 296 286 280 268 261 256 259 264 254 250 242 239 233 227 224 210 203 206 203 197 198 202
306 308 311 313 314 316 318 316 318 321 322 322 324 327 330 328 324 317 314 310 303 292 288 280 276 277 270 269 273 281 253 252 246 240 227 215 208 201 196 198 198 202 207
302 302 305 305 308 312 315 315 317 321 321 321 322 324 322 320 323 322 315 311 305 301 295 287 276 277 275 272 278 286 256 245 247 239 227 213 206 191 184 189 188 193 198
301 302 303 302 303 310 314 313 313 314 315 313 310 310 309 308 310 310 309 302 298 296 296 289 278 272 271 275 283 296 264 243 240 242 228 202 197 188 185 190 187 191 190
301 302 298 297 300 308 309 307 308 307 311 312 306 303 303 302 300 302 303 301 300 298 298 291 284 278 276 281 286 303 296 249 242 240 223 198 185 188 190 195 195 187 177
298 300 296 296 299 303 302 301 304 307 311 310 304 301 301 302 300 300 300 300 299 296 297 293 290 285 276 277 286 304 307 290 241 234 225 198 181 187 191 193 179 165 163
297 296 293 295 298 300 299 297 303 308 310 310 309 308 307 304 301 302 305 305 303 298 298 298 290 293 299 299 292 303 316 316 280 229 214 195 179 180 182 170 166 165 166
294 295 294 294 297 300 300 300 307 306 304 306 308 308 305 306 306 302 298 296 293 291 295 298 295 295 295 300 308 314 327 327 296 187 161 160 160 164 163 159 156 164 169
292 289 286 288 293 299 301 303 307 307 302 303 307 307 304 301 305 303 299 293 289 281 283 288 292 288 285 292 304 304 301 293 257 215 180 160 158 156 154 151 147 147 156
289 285 284 286 292 296 297 301 305 303 300 300 304 305 302 298 297 302 308 300 282 289 282 279 283 282 278 289 297 308 307 284 211 176 168 168 168 168 165 162 155 151 155